Location: Unspecified
(0.0000°N, 0.0000°E)
Time: 11:18:11
(UTC+00:00)

Explorer 11/Cluster Stage 4 - Pass Details

Date: 25 November 2019
Orbit: 467 x 1259 km, 28.8° (Epoch: 13 December)

Event Time Altitude Azimuth Distance (km) Brightness Sun altitude
Rises 11:28:36 0° 220° (SW) 3,056 9.8 68.8°
Reaches altitude 10° 11:31:42 10° 204° (SSW) 1,991 9.1 68.9°
Maximum altitude 11:35:08 21° 155° (SSE) 1,285 8.4 69.1°
Drops below altitude 10° 11:38:10 10° 104° (ESE) 1,735 8.6 69.1°
Sets 11:40:39 0° 87° (E) 2,548 9.2 69.2°
